Flag for Guatemala Weather past 2 weeks in Guatemala, Guatemala

Now
N/A

Partly cloudy.


Feels Like: N/A
Forecast: 60 / 76 °F
Wind: 12 mph from North

Location: Guatemala Aeropuertola Aurora

Current Time: Mar 29, 2015 at 11:11:36 PM

Latest Report: Mar 29, 2015 at 10:38 PM


Visibility: N/A

Pressure: N/A

Humidity: N/A

Dew point: N/A

Location of GuatemalaLocation

Historic Weather in Guatemala — Graph

°F

Guatemala temperature yesterday

Maximum temperature yesterday: 77 °F (at 2:00 PM)
Minimum temperature yesterday: 61 °F (at 5:00 AM)
Average temperature yesterday: 68 °F

Past Weeks' High & Low Weather Summary

 TemperatureHumidityPressure
High82 °F (Mar 27, 2:00 PM)100% (Mar 21, 7:00 PM)30.42 "Hg (Mar 21, 7:00 PM)
Low48 °F (Mar 21, 7:00 PM)34% (Mar 18, 1:00 PM)30.01 "Hg (Mar 21, 1:00 PM)
Average67 °F72%30.30 "Hg
* Reported Mar 14 10:00 PM — Mar 29 10:00 PM, Guatemala, Weather by CustomWeather, © 2015

Note: Actual official high and low records may vary slightly from our data, if they occured in-between our weather recording intervals... More about our weather records

Advertising

Guatemala weather history for previous 24 hours

 ConditionsComfort  
Time TempWeatherWind HumidityBarometerVisibility
10:00 PM
Sun, Mar 29
63 °FPartly cloudy.14 mph94%30.39 "HgN/A
9:00 PM63 °FMostly cloudy.14 mph88%30.39 "HgN/A
8:05 PMN/APassing clouds.14 mphN/AN/AN/A
8:00 PM64 °FDrizzle. Mostly cloudy.14 mph88%30.36 "HgN/A
7:00 PM64 °FRain. Mostly cloudy.12 mph88%30.36 "Hg5 mi
6:00 PM70 °FThunderstorms. Broken clouds.14 mph69%30.30 "Hg5 mi
5:22 PMN/AThunderstorms.12 mphN/AN/A5 mi
5:00 PM72 °FBroken clouds.18 mph61%30.27 "HgN/A
4:00 PM73 °FScattered clouds.14 mph57%30.27 "HgN/A
3:00 PM77 °FScattered clouds.16 mph51%30.27 "HgN/A
2:00 PM79 °FScattered clouds.14 mph48%30.33 "HgN/A
1:00 PM79 °FScattered clouds.14 mph48%30.36 "HgN/A
12:00 PM75 °FScattered clouds.16 mph54%30.39 "HgN/A
11:00 AM73 °FScattered clouds.16 mph53%30.42 "HgN/A
10:00 AM72 °FScattered clouds.14 mph57%30.42 "HgN/A
9:00 AM68 °FPassing clouds.14 mph69%30.42 "HgN/A
8:00 AM64 °FPassing clouds.9 mph83%30.42 "HgN/A
7:00 AM61 °FPartly sunny.12 mph88%30.39 "HgN/A
6:00 AM61 °FScattered clouds.14 mph88%30.39 "HgN/A
5:00 AM61 °FClear.12 mph88%30.36 "Hg10 mi
4:00 AM61 °FPassing clouds.12 mph88%30.36 "HgN/A
3:00 AM61 °FPassing clouds.12 mph88%30.36 "HgN/A
2:00 AM63 °FPassing clouds.14 mph83%30.36 "HgN/A
1:00 AM63 °FPassing clouds.16 mph88%30.39 "HgN/A
12:00 AM63 °FPassing clouds.16 mph83%30.39 "HgN/A
11:00 PM
Sat, Mar 28
64 °FPassing clouds.16 mph83%30.42 "HgN/A
Weather by CustomWeather, © 2015

See weather overviewHow to use our weather pages